Back to catalog

COSMOS 970 DEB

AliveLEO
NORAD 64976·DEBRIS·🇷🇺 Russia

Launched Dec 21, 1977 from Baikonur Cosmodrome

Loading…

Next Passes (next 24 hours)

TLE

AgingSource: Space-Track

Epoch: Sep 9, 2026, 03:01 UTC

1 64976U 77121CM  26252.12600115  .00000116  00000-0  37159-3 0  9999
2 64976  65.9381 189.1009 0102112 227.9679 146.4121 13.32919876618219

Track COSMOS 970 DEB in real time with AllMySat

Download on the App Store